Location: Martley
(52.2333°N, 2.3667°W)
Time: 00:50:29
(UTC+00:00)

Cosmos 44 - Pass Details

Date: 11 December 2019
Orbit: 595 x 767 km, 65.1° (Epoch: 26 January)

Event Time Altitude Azimuth Distance (km) Brightness Sun altitude
Rises 06:51:25 0° 224° (SW) 2,998 6.4 -10.9°
Reaches altitude 10° 06:53:46 10° 226° (SW) 2,061 5.5 -10.6°
Maximum altitude 06:58:25 79° 313° (NW) 650 3.0 -9.9°
Drops below altitude 10° 07:02:54 10° 41° (NE) 1,982 5.9 -9.3°
Sets 07:05:08 0° 43° (NE) 2,874 6.7 -9.0°
